SL-23 R/B, 34112

Orbit data source: Space-Track

SL-23 R/B, 34112 is space debris in HEO originally from a launch on Thu, 26 Feb 2009 UTC launched from the Tyuratam Missile And Space Complex (TTMTR). Debris objects in space refer to the collection of defunct objects orbiting the Earth. Examples of debris include non-operational satellites, rocket bodies, and fragments generated from explosions, collisions, or faulty payload assembly.

Loading next visibility...
Identifier
34112, 2009-009B
Orbit
HEO
Country
Flag of CISCIS
Related business
Flag of RUSpace International Services (RU)
Manufacturer
RKKE
Mission
Spacecraft
Bus & Motor
BLOK DM2, 11D58M
Mass
2,540 kg wet, 2,540 kg dry
Launch date (UTC)
2009-02-26 (17 years ago)
Launch vehicle
Unknown
Launch site
Tyuratam Missile And Space Complex (TTMTR)
Object type
Payload
Rocket body
Debris
Shape & HBR
Cyl + 1 Nozzle, 3.0 m
Radar Cross Section
22.521 m², Large (>1 m²)

Expand to show TLE details & history
Last TLE update: 3 days ago

TLE from 3 days ago
0 SL-23 R/B
1 34112U 09009B   25258.33995390 -.00000093  00000-0  00000-0 0  9995
2 34112  35.1687 337.9038 6894571  70.3856 357.3340  2.20444053133304
Epoch: 2025-09-15T08:09Z
TLE epoch observation values (Epoch: 2025-09-15T08:09:32.016Z)
Latitude
26.90113°
Longitude
-93.25808°
Altitude
1,549.79 km
Speed
9.199 km/s
True Right ascension
01h 34m 41s
True Declination
26° 46' 35"
Sunlit
Object was in full shadow at epoch
Visualization orbit readout
Latitude
Unknown
Longitude
Unknown
Altitude
Unknown
Speed
Unknown
Apparent Right ascension
Unknown
Apparent Declination
Unknown
Sunlit
N/A
Visualization observer readout
Local Sidereal Time
05:36:54
Azimuth
Unknown
Elevation
Unknown
Doppler factor
Unknown
Orbital elements
Apogee altitude
35,758.287 km
Perigee altitude
1,367.054 km
Semi-major axis
24,940.807 km
Eccentricity
0.68946
Inclination
35.1687°
RAAN
337.9038°
Arg. of periapsis
70.3856°
True anomaly
340.29796°
Mean anomaly
357.334°
Eccentric anomaly
351.48456°
Mean motion
0.55103 °/min
Orbital period
653.32 mins
BSTAR
0
Loading maneuver chart data...
Computing Atmospheric mass density...
Loading historical data...
Loading historical data...
Loading historical data...
Loading historical data...
Loading historical data...
Loading historical data...
Loading historical data...
Other satellites on launch #9 in the year 2009 (2009-02-26 UTC)

Documentation

Showing up to 5 results
|